Regional Weather Roundup
Issued by NWS Albany, NY

Home | Current Version | Previous Version | Text Only | Print | Product List | Glossary On
Versions: 1 2 3 4 5 6 7 8 9 10 11 12 13 14 15 16 17 18 19 20 21 22 23 24 25 26 27 28 29 30 31 32 33 34 35 36 37 38 39 40 41 42 43 44 45 46 47 48 49 50
000
ASUS41 KALY 301810
RWRALY

NEW YORK STATE HOURLY WEATHER ROUNDUP
NATIONAL WEATHER SERVICE ALBANY NY
200 PM EDT SUN AUG 30 2015

NOTE: "FAIR" INDICATES FEW OR NO CLOUDS BELOW 12,000 FEET WITH NO
SIGNIFICANT WEATHER AND/OR NO OBSTRUCTIONS TO VISIBILITY.

NYZ032-033-038>043-046>054-057>066-NYZ062>081-301900-
EAST


CITY           SKY/WX    TMP DP  RH WIND       PRES   REMARKS
ALBANY         PTSUNNY   81  61  50 CALM      30.06F
GLENS FALLS    CLOUDY    77  59  53 S6        30.05F
POUGHKEEPSIE   MOSUNNY   87  64  46 CALM      30.04F
NEWBURGH       MOSUNNY   84  68  58 W6        30.07F
MONTGOMERY     MOSUNNY   87  68  52 MISG      30.05F HX  90
WHITE PLAINS   PTSUNNY   86  63  45 S7        30.07F
ISLIP          PTSUNNY   83  66  56 S10       30.06F
NEW YORK CITY  PTSUNNY   90  62  39 VRB7      30.05F HX  90
CENTRAL PARK   MOSUNNY   89  64  43 VRB3      30.09F HX  90
$$

NYZ005>009-017-018-044>046-055-056-301900-
CENTRAL


CITY           SKY/WX    TMP DP  RH WIND       PRES   REMARKS
FULTON         CLOUDY    77  64  64 SE3       30.07F
SYRACUSE       PTSUNNY   77  63  61 N6        30.07S
ROME           CLOUDY    77  59  53 VRB3      30.08F
ELMIRA         PTSUNNY   81  65  58 SW9       30.07F
BINGHAMTON     PTSUNNY   76  63  64 VRB6      30.11F
MONTICELLO     PTSUNNY   79  66  65 CALM      30.12F
$$

NYZ026>034-041>043-301900-
NORTH


CITY           SKY/WX    TMP DP  RH WIND       PRES   REMARKS
WATERTOWN      CLOUDY    75  61  61 W7        30.06F
FORT DRUM      NOT AVBL
MASSENA        SUNNY     78  60  53 W6        30.05F
SARANAC LAKE   MOSUNNY   75  56  51 VRB6      30.08F
PLATTSBURGH    PTSUNNY   76  61  59 SE13      30.03F
$$

NYZ001>004-010>016-019>021-301900-
WEST


CITY           SKY/WX    TMP DP  RH WIND       PRES   REMARKS
NIAGARA FALLS  PTSUNNY   76  63  64 NW7       30.07F
BUFFALO        PTSUNNY   78  65  63 SW10      30.08F
DUNKIRK        PTSUNNY   74  66  76 W8        30.10S
JAMESTOWN      MOSUNNY   73  63  68 SW9       30.13S
WELLSVILLE     PTSUNNY   77  60  55 W9        30.15F
ROCHESTER      MOSUNNY   79  63  57 VRB3      30.07F
PENN YAN       CLOUDY    79  64  60 CALM      30.09F
$$

             KEY
       WCI = WIND CHILL INDEX
       VSB = VISIBILITY
       HX  = HEAT INDEX
$$



USA.gov is the U.S. government's official web portal to all federal, state and local government web resources and services.